Weather History for Austin, MN

Change the Weather History Date:

Sunday, August 18, 2013

  Actual Average Record
Temperature  
Mean Temperature 66 °F -  
Max Temperature 78 °F 75 °F 91 °F (2003)
Min Temperature 53 °F 57 °F 44 °F (2012)
Growing Degree Days 16 (Base 50)    
Moisture  
Dew Point 53 °F    
Average Humidity 65    
Maximum Humidity 94    
Minimum Humidity 39    
Precipitation  
Precipitation 0.00 in - - ()
Sea Level Pressure  
Sea Level Pressure 30.14 in    
Wind  
Wind Speed 4 mph (South)    
Max Wind Speed 14 mph    
Max Gust Speed 21 mph    
Visibility 10 miles    
Events      
Averages and records for this station are not official NWS values.
T = Trace of Precipitation, MM = Missing Value Source: NWS Daily Summary

Daily Weather History Graph

Daily Weather History Graph

Search for Another Location

Airport:

Trip Planner

Search our weather history database for the weather conditions in past years. The results will help you decide how hot, cold, wet, or windy it might be!

Date:

Astronomy

Aug. 18, 2013 Rise Set
Actual Time 6:19 AM CDT 8:10 PM CDT
Civil Twilight 5:49 AM CDT 8:40 PM CDT
Nautical Twilight 5:11 AM CDT 9:18 PM CDT
Astronomical Twilight 4:30 AM CDT 9:58 PM CDT
Moon 6:18 PM CDT (8/18) 3:27 AM CDT (8/18)
Length of Visible Light 14h 51m
Length of Day
13h 50m
Waxing Gibbous, 92% of the Moon is Illuminated
Aug 18
Waxing Gibbous
Aug 20
Full
Aug 28
Last Quarter
Sep 5
New
Sep 12
First Quarter

Hourly Weather History & Observations

Time (CDT) Temp. Dew Point Humidity Pressure Visibility Wind Dir Wind Speed Gust Speed Precip Events Conditions
12:16 AM 57.2 °F 53.6 °F 88% 30.17 in 10.0 mi Calm Calm - N/A   Clear
12:37 AM 60.8 °F 53.6 °F 77% 30.17 in 10.0 mi Calm Calm - N/A   Clear
12:56 AM 60.8 °F 53.6 °F 77% 30.17 in 10.0 mi SSE 3.5 mph - N/A   Clear
1:16 AM 60.8 °F 53.6 °F 77% 30.17 in 10.0 mi Calm Calm - N/A   Clear
1:37 AM 57.2 °F 53.6 °F 88% 30.17 in 10.0 mi Calm Calm - N/A   Clear
1:56 AM 59.0 °F 53.6 °F 82% 30.17 in 10.0 mi Calm Calm - N/A   Clear
2:16 AM 59.0 °F 53.6 °F 82% 30.17 in 10.0 mi Calm Calm - N/A   Clear
2:37 AM 57.2 °F 53.6 °F 88% 30.17 in 10.0 mi Calm Calm - N/A   Clear
2:56 AM 57.2 °F 53.6 °F 88% 30.17 in 10.0 mi Calm Calm - N/A   Clear
3:16 AM 55.4 °F 51.8 °F 88% 30.17 in 10.0 mi Calm Calm - N/A   Clear
3:37 AM 55.4 °F 51.8 °F 88% 30.17 in 10.0 mi Calm Calm - N/A   Clear
3:56 AM 55.4 °F 51.8 °F 88% 30.17 in 10.0 mi SE 3.5 mph - N/A   Clear
4:16 AM 55.4 °F 51.8 °F 88% 30.17 in 10.0 mi SE 3.5 mph - N/A   Clear
4:37 AM 55.4 °F 51.8 °F 88% 30.17 in 10.0 mi Calm Calm - N/A   Clear
4:56 AM 53.6 °F 51.8 °F 94% 30.17 in 7.0 mi Calm Calm - N/A   Clear
5:16 AM 53.6 °F 51.8 °F 94% 30.18 in 7.0 mi Calm Calm - N/A   Clear
5:37 AM 53.6 °F 51.8 °F 94% 30.18 in 7.0 mi Calm Calm - N/A   Clear
5:56 AM 53.6 °F 51.8 °F 94% 30.19 in 7.0 mi SSE 4.6 mph - N/A   Clear
6:16 AM 55.4 °F 51.8 °F 88% 30.19 in 10.0 mi SSE 4.6 mph - N/A   Clear
6:37 AM 55.4 °F 51.8 °F 88% 30.19 in 10.0 mi SSE 4.6 mph - N/A   Clear
6:56 AM 57.2 °F 51.8 °F 82% 30.19 in 10.0 mi SSE 4.6 mph - N/A   Clear
7:16 AM 57.2 °F 51.8 °F 82% 30.19 in 10.0 mi SSE 3.5 mph - N/A   Clear
7:37 AM 59.0 °F 53.6 °F 82% 30.18 in 10.0 mi SSE 4.6 mph - N/A   Clear
7:56 AM 60.8 °F 53.6 °F 77% 30.19 in 10.0 mi SSE 4.6 mph - N/A   Clear
8:16 AM 62.6 °F 53.6 °F 72% 30.19 in 10.0 mi Calm Calm - N/A   Clear
8:36 AM 64.4 °F 55.4 °F 73% 30.19 in 10.0 mi South 4.6 mph - N/A   Clear
8:56 AM 64.4 °F 55.4 °F 73% 30.18 in 10.0 mi SSE 4.6 mph - N/A   Clear
9:17 AM 66.2 °F 55.4 °F 68% 30.18 in 10.0 mi South 5.8 mph - N/A   Clear
9:36 AM 69.8 °F 55.4 °F 60% 30.19 in 10.0 mi SSW 8.1 mph - N/A   Clear
9:56 AM 69.8 °F 55.4 °F 60% 30.19 in 10.0 mi SSW 8.1 mph - N/A   Clear
10:17 AM 71.6 °F 55.4 °F 57% 30.18 in 10.0 mi SSW 9.2 mph - N/A   Clear
10:36 AM 71.6 °F 55.4 °F 57% 30.18 in 10.0 mi SSW 6.9 mph - N/A   Clear
10:56 AM 73.4 °F 55.4 °F 53% 30.18 in 10.0 mi South 8.1 mph - N/A   Clear
11:17 AM 73.4 °F 51.8 °F 47% 30.17 in 10.0 mi SSW 10.4 mph - N/A   Clear
11:35 AM 73.4 °F 51.8 °F 47% 30.17 in 10.0 mi SSW 6.9 mph - N/A   Clear
11:56 AM 73.4 °F 51.8 °F 47% 30.17 in 10.0 mi South 8.1 mph - N/A   Clear
12:16 PM 75.2 °F 51.8 °F 44% 30.16 in 10.0 mi SSW 5.8 mph - N/A   Scattered Clouds
12:37 PM 75.2 °F 51.8 °F 44% 30.16 in 10.0 mi South 6.9 mph - N/A   Scattered Clouds
12:56 PM 75.2 °F 50.0 °F 41% 30.15 in 10.0 mi SSW 8.1 mph - N/A   Clear
1:16 PM 75.2 °F 50.0 °F 41% 30.15 in 10.0 mi South 8.1 mph - N/A   Scattered Clouds
1:37 PM 77.0 °F 50.0 °F 39% 30.14 in 10.0 mi South 8.1 mph - N/A   Clear
1:56 PM 77.0 °F 51.8 °F 41% 30.13 in 10.0 mi SSE 5.8 mph 16.1 mph N/A   Scattered Clouds
2:16 PM 77.0 °F 50.0 °F 39% 30.12 in 10.0 mi South 10.4 mph 16.1 mph N/A   Clear
2:37 PM 77.0 °F 51.8 °F 41% 30.11 in 10.0 mi South 9.2 mph 18.4 mph N/A   Scattered Clouds
2:55 PM 78.8 °F 51.8 °F 39% 30.11 in 10.0 mi South 11.5 mph 20.7 mph N/A   Scattered Clouds
3:16 PM 77.0 °F 51.8 °F 41% 30.11 in 10.0 mi South 9.2 mph 18.4 mph N/A   Unknown
3:36 PM 77.0 °F 51.8 °F 41% 30.12 in 10.0 mi South 9.2 mph - N/A   Unknown
3:57 PM 78.8 °F 51.8 °F 39% 30.12 in 10.0 mi South 13.8 mph 17.3 mph N/A   Mostly Cloudy
4:16 PM 77.0 °F 51.8 °F 41% 30.12 in 10.0 mi SSW 10.4 mph - N/A   Scattered Clouds
4:36 PM 78.8 °F 51.8 °F 39% 30.12 in 10.0 mi SSW 10.4 mph - N/A   Scattered Clouds
4:57 PM 78.8 °F 51.8 °F 39% 30.11 in 10.0 mi South 8.1 mph - N/A   Clear
5:16 PM 75.2 °F 51.8 °F 44% 30.11 in 10.0 mi South 6.9 mph - N/A   Scattered Clouds
5:36 PM 75.2 °F 51.8 °F 44% 30.10 in 10.0 mi South 9.2 mph - N/A   Scattered Clouds
5:57 PM 75.2 °F 53.6 °F 47% 30.09 in 10.0 mi South 6.9 mph - N/A   Clear
6:16 PM 75.2 °F 53.6 °F 47% 30.09 in 10.0 mi South 5.8 mph - N/A   Clear
6:36 PM 73.4 °F 53.6 °F 50% 30.08 in 10.0 mi South 5.8 mph - N/A   Clear
6:57 PM 73.4 °F 55.4 °F 53% 30.08 in 10.0 mi SSE 4.6 mph - N/A   Clear
7:16 PM 73.4 °F 55.4 °F 53% 30.08 in 10.0 mi South 4.6 mph - N/A   Clear
7:36 PM 71.6 °F 55.4 °F 57% 30.08 in 10.0 mi South 4.6 mph - N/A   Clear
7:56 PM 71.6 °F 55.4 °F 57% 30.08 in 10.0 mi South 3.5 mph - N/A   Scattered Clouds
8:16 PM 69.8 °F 57.2 °F 64% 30.08 in 10.0 mi SSE 3.5 mph - N/A   Scattered Clouds
8:36 PM 69.8 °F 57.2 °F 64% 30.09 in 10.0 mi SSE 3.5 mph - N/A   Mostly Cloudy
8:56 PM 69.8 °F 57.2 °F 64% 30.08 in 10.0 mi South 3.5 mph - N/A   Mostly Cloudy
9:16 PM 68.0 °F 57.2 °F 68% 30.09 in 10.0 mi SSE 3.5 mph - N/A   Scattered Clouds
9:36 PM 66.2 °F 57.2 °F 73% 30.08 in 10.0 mi SSE 4.6 mph - N/A   Clear
9:56 PM 66.2 °F 57.2 °F 73% 30.08 in 10.0 mi SSE 4.6 mph - N/A   Clear
10:16 PM 66.2 °F 57.2 °F 73% 30.08 in 10.0 mi SSE 5.8 mph - N/A   Clear
10:36 PM 64.4 °F 57.2 °F 77% 30.07 in 10.0 mi SSE 3.5 mph - N/A   Clear
10:56 PM 64.4 °F 57.2 °F 77% 30.08 in 10.0 mi South 4.6 mph - N/A   Clear
11:16 PM 62.6 °F 55.4 °F 77% 30.08 in 10.0 mi South 4.6 mph - N/A   Clear
11:36 PM 62.6 °F 55.4 °F 77% 30.08 in 10.0 mi South 5.8 mph - N/A   Clear
11:56 PM 62.6 °F 55.4 °F 77% 30.08 in 10.0 mi South 4.6 mph - N/A   Clear